| Date | Temp | Humidity | Rainfall | Dew Point | Wind Direction | Wind Speed | Wind Pressure | Condition | Visibility |
|---|---|---|---|---|---|---|---|---|---|
| 2025-04-09 12:58:50 | 32 | 66 | 24 | 300 | 9.5 | 1011 | Partly Cloudy (Day) | 20 KM | |
| 2025-04-09 11:59:09 | 31 | 63 | 0.00 | 24 | 250 | 3.8 | 1012 | Cloudy | 20 KM |
| 2025-04-09 10:58:21 | 32 | 65 | 24 | 210 | 9.5 | 1012 | Partly Cloudy (Day) | 20 KM | |
| 2025-04-09 09:58:24 | 30 | 66 | 23 | 220 | 11.4 | 1012 | Partly Cloudy (Day) | 20 KM | |
| 2025-04-09 08:59:03 | 29 | 73 | 0.00 | 24 | 200 | 9.5 | 1012 | Partly Cloudy (Day) | 20 KM |
| 2025-04-09 07:59:26 | 27 | 81 | 23 | 190 | 5.7 | 1012 | Partly Cloudy (Day) | 20 KM | |
| 2025-04-09 07:00:00 | 25 | 94 | 24 | 160 | 5.7 | 1011 | Partly Cloudy (Day) | 15 KM | |
| 2025-04-09 06:59:22 | 25 | 94 | 24 | 160 | 5.7 | 1011 | Partly Cloudy (Night) | 15 KM | |
| 2025-04-09 05:58:55 | 24 | 95 | 24 | 210 | 5.7 | 1011 | Partly Cloudy (Night) | 10 KM | |
| 2025-04-09 05:00:23 | 25 | 96 | 24 | 220 | 5.7 | 1011 | Partly Cloudy (Night) | 10 KM | |
| 2025-04-09 03:58:45 | 25 | 96 | 24 | 200 | 7.6 | 1011 | Partly Cloudy (Night) | 10 KM | |
| 2025-04-09 02:59:45 | 25 | 96 | 24 | 190 | 7.6 | 1011 | Partly Cloudy (Night) | 10 KM | |
| 2025-04-09 02:00:10 | 25 | 95 | 0.01 | 24 | 160 | 4 | 1012 | Rain | 10 km |
| 2025-04-09 01:03:41 | 25 | 94 | 0.01 | 24 | 200 | 8 | 1012 | Rain | 10 km |
| 2025-04-08 23:59:26 | 25 | 95 | 0.01 | 24 | 170 | 6 | 1014 | Rain | 10 km |
| 2025-04-08 22:59:58 | 25 | 95 | 0.01 | 24 | 140 | 4 | 1014 | Rain | 8 km |
| 2025-04-08 21:58:34 | 25 | 94 | 0.01 | 24 | 080 | 4 | 1014 | Rain | 10 km |
| 2025-04-08 21:09:54 | 25 | 94 | 0.00 | 24 | 160 | 5.7 | 1013 | Rain | 10KM |
| 2025-04-08 21:08:28 | 25 | 94 | 0.00 | 24 | 160 | 5.7 | 1013 | Rain | 10KM |
| 2025-04-08 20:02:08 | 25 | 93 | 0.00 | 24 | 150 | 7.6 | 1013 | Rain | 09KM |
| 2025-04-08 19:01:27 | 26 | 94 | 0.00 | 25 | 160 | 5.7 | 1011 | Rain | 09 |
| 2025-04-08 18:02:08 | 26 | 93 | 0.00 | 25 | 190 | 9.5 | 1011 | Night Shower | 09KM |
| 2025-04-08 17:03:42 | 27 | 93 | 25 | 190 | 9.5 | 1010 | Shower Day | 09 KM | |
| 2025-04-08 15:59:19 | 26 | 94 | 25 | 210 | 11.4 | 1010 | Shower Day | 09 KM | |
| 2025-04-08 14:58:07 | 28 | 85 | 25 | 260 | 17.1 | 1010 | Shower Day | 09 KM |